NOAA 16 DEB, 41091

Orbit data source: Space-Track

NOAA 16 DEB, 41091 is space debris in SSO originally from a launch on Thu, 21 Sep 2000 UTC launched from the Air Force Western Test Range (AFWTR). Debris objects in space refer to the collection of defunct objects orbiting the Earth. Examples of debris include non-operational satellites, rocket bodies, and fragments generated from explosions, collisions, or faulty payload assembly.

Loading next visibility...
Identifier
41091, 2000-055BA
Orbit
SSO
Country
Flag of USUS
Related business
Manufacturer
Unknown
Mission
Spacecraft
Bus & Motor
Unknown
Mass
Unknown
Launch date (UTC)
2000-09-21 (25 years ago)
Launch vehicle
Unknown
Launch site
Air Force Western Test Range (AFWTR)
Object type
Payload
Rocket body
Debris
Shape & HBR
Unknown shape, 0.1 m
Radar Cross Section
Small (<0.1 m²)

Expand to show TLE details & history
Last TLE update: 19 hours ago

TLE from 19 hours ago
0 NOAA 16 DEB
1 41091U 00055BA  25340.29927201  .00015671  00000-0  55789-2 0  9997
2 41091  98.9668  97.5966 0037878  18.3508 341.9032 14.33942034515807
Epoch: 2025-12-06T07:10Z
TLE epoch observation values (Epoch: 2025-12-06T07:10:57.101Z)
Latitude
-0.00006°
Longitude
-85.47032°
Altitude
755.747 km
Speed
7.49 km/s
True Right ascension
06h 30m 23s
True Declination
0° 00' 00"
Sunlit
Object was in full shadow at epoch
Visualization orbit readout
Latitude
Unknown
Longitude
Unknown
Altitude
Unknown
Speed
Unknown
Apparent Right ascension
Unknown
Apparent Declination
Unknown
Sunlit
N/A
Visualization observer readout
Local Sidereal Time
00:16:19
Azimuth
Unknown
Elevation
Unknown
Doppler factor
Unknown
Orbital elements
Apogee altitude
802.834 km
Perigee altitude
748.639 km
Semi-major axis
7,153.874 km
Eccentricity
0.00379
Inclination
98.9668°
RAAN
97.5966°
Arg. of periapsis
18.3508°
True anomaly
341.76776°
Mean anomaly
341.9032°
Eccentric anomaly
341.83554°
Mean motion
3.587 °/min
Orbital period
100.36 mins
BSTAR
0.0055789
Loading maneuver chart data...
Computing Atmospheric mass density...
Loading historical data...
Loading historical data...
Loading historical data...
Loading historical data...
Loading historical data...
Loading historical data...
Loading historical data...

Documentation

Showing up to 5 results
|